Weather in Krasnoselskoye

Russia / Republic of Crimea     45°24′54″N   32°40′31″E
temp.,
°C
wind,
m/s
gust,
m/s
humid.,
%
clouds,
%
prec.,
mm/h
press.,
hPa
HPBL,
m
27 november, sat
sat2700:00+10sse81679100 0.0 1008493
03:00+11sse131881100 1.9 1006720
06:00+13s141979100 0.3 1004825
09:00+13ssw8139279 0.4 1005476
12:00+13sw91384100 0.1 1006545
15:00+13ssw81285100 0.1 1005462
18:00+13ssw91488100 0.0 1006468
21:00+13ssw8129177 0.0 1007293
28 november, sun
sun2800:00+12ssw61093100 0.0 1007201
03:00+12ssw46910 0.0 100782
06:00+12s589480 0.0 1007130
09:00+13s7119293 0.0 1008233
12:00+14ssw81384100 0.0 1008431
15:00+12sse71194100 0.3 1007458
18:00+12sse81296100 3.1 1006410
21:00+13s11159196 3.8 1004554
29 november, mon
mon2900:00+13ssw9149372 0.0 1005484
03:00+13s9159151 0.1 1004394
06:00+13s101890100 0.5 1002488
09:00+14s12217988 1.5 1000513
12:00+15s13217711 0.3 999687
15:00+15ssw14238219 2.5 997744
18:00+14ssw142188100 0.4 997629
21:00+12wsw91382100 0.4 999523
30 november, tue
tue3000:00+11wsw8108395 0.0 1000521
03:00+11wsw5781100 0.0 1001409
06:00+10sw5780100 0.4 1002408
09:00+10sw4580100 0.8 1002268
12:00+11ssw3371100 0.1 1002641
15:00+10n3376100 0.2 1000359
18:00+7nne111281100 5.9 1000618
21:00+7nnw121457100 8.0 1002994
1 december, wed
wed100:00+6nw101163100 0.0 1006979
03:00+6nw89615 0.0 1009782
06:00+6wnw78570 0.0 1010679
09:00+6wsw696074 0.0 10111128
12:00+8wsw9115799 0.0 10101768
15:00+8w11126247 0.3 10091563
18:00+7w9116054 0.0 10101146
21:00+8w895970 0.1 10111093